Weather Roundup
Issued by NWS

Home | Current Version | Previous Version | Graphics & Text | Print | Product List | Glossary Off
Versions: 1 2 3 4 5 6 7 8 9 10 11 12 13 14 15 16 17 18 19 20 21 22 23 24 25 26 27 28 29 30 31 32 33 34 35 36 37 38 39 40 41 42 43 44 45 46 47 48 49 50

000
NZUS93 KARX 170659
HRRWXR

CURRENT HOURLY OBSERVATIONS ACROSS
MUCH OF THE UPPER MISSISSIPPI VALLEY
NATIONAL WEATHER SERVICE LA CROSSE WI
200 AM CDT THU APR 17 2014


...SOUTHEAST MINNESOTA...


CITY           SKY/WX    TMP DP  RH WIND       PRES   REMARKS
ROCHESTER      LGT RAIN  42  35  76 S10       29.83R
ROCHESTER/MAYO CLOUDY    43  33  69 S8G20     29.84R
WINONA         CLOUDY    48  32  53 SE10G17   29.87F
AUSTIN         CLOUDY    34  34 100 NW17G26   29.88R FOG     WCI  23
ALBERT LEA     CLOUDY    32  32 100 NW13G24   29.93R WCI  22
DODGE CENTER   CLOUDY    41  41 100 NW14      29.84R FOG
PRESTON        CLOUDY    45  32  61 S16G23    29.84R
OWATONNA       CLOUDY    34  30  86 NW23G30   29.92R WCI  22
FARIBAULT      CLOUDY    34  30  86 NW22G29   29.94R WCI  22
$$

...ELSEWHERE IN MINNESOTA...


CITY           SKY/WX    TMP DP  RH WIND       PRES   REMARKS
MINNEAPOLIS    CLOUDY    28  28 100 N16G26    29.98R WCI  16
INTNL FALLS    MOCLDY    25   8  48 N7        30.26S WCI  17
DULUTH         LGT SNOW  28  24  85 NE17G25   30.10F VSB 3/4 WCI  16
RED WING       LGT RAIN  43  39  87 NE5       29.90R
REDWOOD FALLS  CLOUDY    29  24  82 N14G21    30.11R WCI  18
MANKATO        CLOUDY    30  27  86 N22       30.00R WCI  17
WORTHINGTON    CLOUDY    28  19  69 N20G29    30.11R WCI  15
FAIRMONT       CLOUDY    28  25  86 NW24G30   30.04R WCI  14
$$

...SOUTHWEST WISCONSIN...


CITY           SKY/WX    TMP DP  RH WIND       PRES   REMARKS
LA CROSSE      LGT RAIN  49  30  48 SE17G28   29.88F
PRAIRIE DU CHI CLOUDY    48  27  42 SE9G23    29.92R
BOSCOBEL       CLOUDY    49  28  44 S8G20     29.94F
LONE ROCK      NOT AVBL
PLATTEVILLE    CLOUDY    44  30  57 SE20G28   29.97F
FORT MC COY    CLOUDY    47  27  44 S20       29.93S
VIROQUA        CLOUDY    45  29  55 SE15G23   29.91S
WIS DELLS      CLOUDY    44  28  54 SE15      29.99F
$$

...ELSEWHERE IN WISCONSIN...


CITY           SKY/WX    TMP DP  RH WIND       PRES   REMARKS
MILWAUKEE      MOCLDY    41  29  62 SE16G23   30.14F
MADISON        CLOUDY    44  28  53 SE20      30.03F
GREEN BAY      CLOUDY    39  28  64 SE20G26   30.15F WCI  29
EAU CLAIRE     NOT AVBL
BLACK RVR FLS  CLOUDY    45  29  53 E5        29.93S
MEDFORD        LGT SNOW  32  32  97 E14       29.99F VSB 1   WCI  22
WAUSAU         LGT SNOW  33  30  88 E16G23    30.03F FOG     WCI  23
WIS RAPIDS     CLOUDY    41  28  60 SE12G20   30.00F
MARSHFIELD     CLOUDY    39  30  70 SE16G29   29.97F WCI  30
RICE LAKE      LGT SNOW  34  32  93 NE7       30.00R WCI  28
$$

...NORTHEAST IOWA...


CITY           SKY/WX    TMP DP  RH WIND       PRES   REMARKS
WATERLOO       CLOUDY    38  34  85 W17G24    29.94R WCI  28
DUBUQUE        MOCLDY    44  29  55 S22G31    29.94F
DECORAH        CLOUDY    46  30  53 S21G29    29.85F
MASON CITY     CLOUDY    32  30  92 NW23G32   29.95R WCI  19
CHARLES CITY   CLOUDY    36  34  93 W24G31    29.91R WCI  24
OELWEIN        CLOUDY   N/A N/A N/A SW17      29.91R
$$

...ELSEWHERE IN IOWA...


CITY           SKY/WX    TMP DP  RH WIND       PRES   REMARKS
DES MOINES     CLOUDY    38  31  76 NW16      30.06R WCI  29
IOWA CITY      PTCLDY    46  29  51 SW13      30.00R
FORT DODGE     CLOUDY    32  27  80 NW14G21   30.05R WCI  22
MARSHALLTOWN   CLOUDY    36  32  85 W22G29    29.98R WCI  25
CEDAR RAPIDS   MOCLDY    45  34  65 W9        29.95R
$$

...NORTHERN ILLINOIS...


CITY           SKY/WX    TMP DP  RH WIND       PRES   REMARKS
CHICAGO-OHARE  MOCLDY    42  23  46 SE13      30.14F
DUPAGE         MOCLDY    42  25  50 S13       30.12F
CHICAGO-MIDWAY CLOUDY    44  25  47 SE14G21   30.15F
MOLINE         MOCLDY    47  27  45 S16G28    29.99F
ROCKFORD       CLOUDY    42  28  57 SE21G28   30.09F
STERLING       CLOUDY    45  30  57 S8G17     30.05S
PEORIA         MOCLDY    45  30  55 S14       30.10S
$$

NOTE: "FAIR" INDICATES FEW OR NO CLOUDS BELOW 12,000 FEET WITH NO
SIGNIFICANT WEATHER AND/OR OBSTRUCTIONS TO VISIBILITY. WIND
SPEEDS ARE IN MILES-PER-HOUR.



USA.gov is the U.S. government's official web portal to all federal, state and local government web resources and services.